GFSGBSN_925_spd_069.txt.gz
Wind_Speed
16 17 16 15 14 15 16 16 16 16 16 17 17 17 17 20 20 21 22 21 22 23 24 25 25 26 18 8 12 1 7 8 12 12 13 11 12 13 14 6 4 11 9 7 5 7 8
15 15 17 16 16 13 15 16 17 18 17 17 17 17 18 17 18 20 22 21 20 21 23 25 25 24 11 17 3 4 5 8 12 16 15 13 11 6 11 9 8 4 8 6 6 4 7
16 15 15 17 20 19 17 17 17 18 18 18 17 17 19 19 18 18 19 19 21 22 23 24 25 14 11 21 8 7 10 11 11 15 11 13 8 10 4 11 7 13 15 10 15 7 1
17 17 17 16 14 20 22 21 18 19 20 19 18 18 18 20 19 18 19 18 20 22 22 21 20 9 9 11 9 15 14 13 10 12 11 5 8 11 10 8 11 15 20 14 11 19 3
20 20 19 18 19 21 18 25 24 20 19 20 18 19 18 19 22 18 18 18 19 22 22 17 6 8 11 5 14 20 18 19 16 12 10 8 10 13 11 11 15 16 12 15 10 6 6
22 21 22 23 23 21 21 21 22 24 19 19 20 18 18 18 21 19 17 16 17 20 11 8 11 8 12 11 9 13 21 21 15 12 12 12 9 12 14 13 13 4 12 3 10 7 10
24 23 24 24 24 24 22 21 20 21 21 18 18 18 18 17 20 18 16 13 7 8 14 13 4 15 3 6 6 12 20 20 16 15 16 17 12 14 16 14 15 11 10 11 7 5 6
27 26 26 25 26 27 25 22 22 20 23 21 18 16 17 17 18 17 11 8 6 5 11 17 22 22 25 3 6 14 21 18 18 18 19 13 14 17 4 6 8 10 12 11 7 1 7
31 30 29 28 27 26 27 26 24 22 20 24 22 18 16 17 16 16 14 13 4 6 8 15 23 24 24 24 16 17 20 23 21 21 20 17 13 10 7 9 10 11 12 10 8 9 10
33 33 33 31 30 29 28 29 28 26 23 20 22 18 15 15 13 14 13 9 6 4 6 12 9 10 24 21 16 28 28 23 17 22 21 17 16 9 12 12 10 13 10 7 11 13 2
37 37 36 35 34 33 32 29 30 29 26 21 20 17 16 15 16 8 4 3 7 5 7 2 10 4 11 21 7 26 27 22 25 21 16 18 18 12 15 14 12 13 1 8 11 11 14
40 40 39 37 36 36 34 33 31 31 29 24 21 20 16 14 18 22 7 4 7 7 13 7 8 10 12 24 20 14 25 25 20 20 19 20 14 15 18 8 10 6 7 10 10 12 9
44 43 43 42 41 39 37 35 33 31 30 27 21 20 20 17 13 18 17 7 7 13 3 14 8 11 16 17 23 17 29 28 22 22 22 21 15 14 6 10 10 10 12 7 6 6 9
47 47 46 45 44 42 40 37 35 33 30 29 22 20 23 23 23 20 11 7 16 18 29 5 3 11 13 14 22 19 25 24 26 25 14 17 20 21 15 16 11 16 15 6 7 7 8
49 48 48 46 45 44 42 39 37 35 31 29 24 22 25 26 25 19 5 13 21 27 13 29 5 11 12 14 13 21 26 27 29 26 19 19 22 23 17 16 14 14 16 12 7 3 4
50 49 48 47 47 45 44 41 38 36 34 31 25 24 28 26 23 19 6 20 24 21 25 15 22 13 13 14 15 19 23 26 28 30 23 6 16 11 15 9 12 12 12 9 8 9 9
50 50 49 48 47 46 45 43 40 38 36 34 25 7 14 26 21 6 11 23 31 24 20 18 16 22 11 11 18 14 13 15 28 28 24 18 11 16 12 17 17 12 11 9 10 12 7
50 49 48 48 48 47 46 44 43 42 39 41 13 7 19 32 9 6 17 28 29 34 26 16 9 15 14 13 16 19 13 21 12 24 28 23 11 12 16 16 19 18 19 18 9 13 9
49 48 47 48 48 47 47 47 46 46 47 36 5 5 19 37 13 15 31 35 30 29 30 22 17 16 14 9 7 16 15 10 7 23 25 21 14 12 15 11 7 12 17 14 17 13 13
50 49 48 48 49 49 50 49 49 50 52 35 6 6 5 14 20 30 32 34 32 32 31 28 19 16 14 14 10 2 13 11 10 14 14 18 17 20 16 17 15 18 19 19 16 10 13
51 47 46 49 49 50 51 51 53 54 58 41 8 9 13 14 22 28 27 21 32 33 31 26 25 19 17 11 11 7 4 5 6 9 9 18 23 19 21 19 13 17 19 21 19 18 19
38 38 41 43 44 48 54 53 54 57 63 28 6 9 15 10 25 32 26 29 33 33 30 34 28 24 18 17 8 9 2 8 9 12 14 20 16 22 21 18 18 15 15 17 18 19 19
42 42 43 42 43 45 54 56 57 61 64 11 19 27 14 19 24 22 26 32 35 32 32 32 29 24 24 16 6 5 6 8 10 9 14 15 15 17 17 19 19 18 18 17 17 18 16
47 48 47 47 46 46 48 53 59 61 75 23 28 13 11 14 17 25 30 30 32 37 32 27 25 28 23 8 3 4 5 10 14 11 9 13 15 13 8 1 15 10 15 17 19 18 16
53 50 48 49 49 47 49 47 53 58 77 41 30 19 12 13 20 23 29 26 28 29 28 28 29 20 19 7 6 6 2 8 7 12 12 11 11 9 8 12 14 17 10 9 13 16 16
42 52 52 50 49 51 50 49 51 52 63 51 34 36 11 14 19 26 20 26 19 21 25 25 24 14 10 8 9 15 7 8 6 5 6 11 11 9 6 15 19 14 14 10 13 13 16
36 36 43 50 51 51 50 50 50 53 55 52 29 44 18 13 14 15 15 18 21 21 18 21 20 10 17 11 11 12 9 13 11 6 6 6 4 11 11 8 9 13 14 10 14 9 12
37 37 38 43 47 51 50 51 51 55 53 51 29 46 25 10 8 17 13 14 19 18 17 20 16 11 11 12 9 7 6 8 9 14 4 10 9 5 8 8 12 10 9 11 12 12 6
37 43 40 43 44 47 53 52 52 53 63 48 20 43 30 9 6 5 18 10 29 27 17 16 18 19 10 10 7 9 5 4 8 9 18 6 6 5 7 5 7 14 10 14 6 7 7

GFSGBSN_925_spd_072.txt.gz
Wind_Speed
14 14 16 17 14 12 12 13 14 15 16 17 16 17 18 19 20 19 21 22 23 22 21 22 24 25 19 9 16 5 7 10 9 11 14 14 13 12 14 17 14 9 12 10 9 8 12
13 14 14 15 16 16 14 14 14 14 16 16 17 17 18 20 20 22 21 22 21 21 21 21 23 21 11 17 14 8 6 9 13 15 15 16 12 12 12 16 14 13 10 14 8 19 14
15 14 15 16 15 15 20 20 19 16 16 17 18 18 18 20 22 22 22 23 20 21 20 20 20 16 13 23 19 15 10 14 16 17 16 18 17 11 14 14 12 14 14 8 8 6 19
15 17 17 17 17 17 18 16 22 23 19 17 18 18 19 20 23 23 24 25 22 22 20 19 19 12 11 16 16 22 23 16 18 17 19 15 10 10 14 14 18 16 17 12 17 14 17
18 19 18 19 20 20 19 18 18 18 23 20 18 17 19 19 22 24 26 28 25 22 22 18 10 10 12 11 17 22 21 21 17 15 15 13 7 12 14 16 13 14 15 15 8 15 19
19 20 19 21 21 21 22 21 21 20 19 21 17 17 18 19 21 24 28 28 22 20 12 10 14 10 16 13 12 16 23 22 17 15 14 12 8 12 14 12 13 5 12 9 8 11 9
21 21 21 22 22 22 21 21 22 21 19 18 18 15 16 16 20 22 25 15 7 6 10 9 9 11 22 5 8 7 19 23 20 17 17 17 12 15 20 19 20 12 14 16 5 17 6
24 24 24 24 24 23 22 22 22 22 21 19 19 19 16 16 18 20 19 7 11 7 11 18 24 25 32 27 9 14 18 19 21 20 20 16 18 19 21 18 9 12 11 15 9 9 2
28 27 26 26 25 25 24 23 23 23 23 20 19 19 17 16 18 19 16 23 21 13 8 18 25 24 29 28 23 16 20 23 20 21 21 20 18 19 19 8 9 10 13 14 11 6 12
30 29 29 28 27 27 27 26 25 24 24 23 20 18 15 13 13 12 16 14 17 6 7 13 16 10 30 22 24 30 24 22 21 23 22 21 21 12 11 10 13 13 9 14 9 10 7
33 33 33 32 32 31 30 29 27 25 24 24 21 18 14 12 16 11 10 15 9 4 6 6 17 4 9 23 8 24 37 24 27 24 16 21 21 18 14 15 15 13 8 9 11 12 14
35 35 34 34 34 32 32 31 29 26 24 25 24 19 16 15 15 23 18 23 9 6 11 6 9 9 12 23 25 5 28 24 22 26 21 21 17 19 21 14 14 14 13 10 12 12 10
39 39 38 37 36 35 34 32 31 29 27 25 25 22 19 18 16 9 8 8 5 11 11 13 13 12 16 18 25 24 26 26 23 22 21 21 23 18 14 18 14 11 10 7 6 7 7
41 41 41 40 39 38 36 35 33 32 28 26 24 24 21 22 19 15 6 4 15 21 32 5 18 17 17 17 20 23 21 24 24 23 16 17 16 23 13 14 13 14 14 5 6 4 4
44 44 43 43 42 41 39 37 35 32 30 27 24 27 24 21 22 16 2 10 17 28 24 27 11 13 15 16 13 19 25 22 22 27 23 16 21 20 17 14 19 14 15 17 7 10 5
47 47 45 44 44 43 41 39 36 34 32 29 26 18 24 23 23 17 8 17 24 32 35 27 27 15 13 16 15 13 22 17 24 26 20 19 15 22 23 19 18 17 11 13 8 5 10
47 47 46 46 45 44 42 40 38 36 33 30 24 5 13 27 25 7 14 24 33 32 29 29 25 21 25 13 17 17 12 15 15 18 22 22 12 14 17 18 18 12 12 10 13 10 8
48 47 47 46 45 44 43 41 40 38 34 32 11 7 20 36 11 9 23 33 32 29 29 29 25 29 19 22 10 17 15 14 4 21 24 24 9 13 18 16 17 17 16 17 8 10 7
48 48 47 47 46 46 45 44 42 41 38 29 5 3 20 33 14 18 20 31 28 27 31 27 28 28 15 17 19 14 15 7 3 16 22 18 17 11 16 17 16 17 20 17 15 12 13
50 49 49 49 48 48 47 46 45 44 43 34 5 6 5 13 14 23 22 24 27 29 30 31 25 21 25 17 14 8 12 9 5 9 9 9 17 15 11 12 12 16 19 18 16 8 9
50 50 49 49 50 49 49 49 48 47 48 40 7 8 12 14 20 23 21 17 31 29 31 30 27 26 16 19 18 16 15 2 7 6 7 4 14 19 19 19 17 18 20 19 20 16 14
49 48 49 49 49 49 51 51 51 51 51 36 6 8 14 13 20 23 24 27 31 27 26 34 30 25 15 22 20 10 16 13 7 1 7 8 13 14 20 20 22 16 20 21 21 20 19
44 44 43 42 43 48 51 52 55 56 56 10 21 23 10 14 16 20 27 28 29 27 25 30 30 26 16 14 18 3 7 0 2 9 8 12 8 13 16 19 17 18 16 13 13 14 13
42 42 42 43 42 42 43 50 57 59 64 24 17 12 12 11 20 20 24 30 32 28 25 25 26 28 22 14 6 1 16 4 10 7 4 8 11 10 9 3 23 10 12 15 13 12 13
45 45 45 45 45 46 45 47 49 61 65 47 23 18 12 11 17 24 25 28 25 19 22 24 24 26 18 13 3 4 4 5 8 13 7 9 4 3 7 14 12 19 10 9 9 14 12
45 47 48 49 48 48 50 49 49 53 62 57 29 37 14 15 17 21 16 20 17 19 19 22 23 19 14 2 5 5 5 6 6 8 13 13 12 4 6 11 16 9 12 4 7 12 13
49 47 48 52 52 51 53 51 52 53 51 56 25 41 17 14 14 14 13 15 17 17 14 17 20 17 14 13 5 3 7 9 8 7 6 6 6 13 7 5 5 8 12 7 14 5 12
38 41 43 47 57 52 53 52 51 50 52 48 33 41 25 9 8 17 19 13 12 17 14 11 12 14 10 13 9 6 7 11 12 9 5 6 10 6 6 6 15 5 4 19 8 2 7
36 38 34 33 36 51 51 50 48 46 49 47 11 41 37 10 4 9 16 14 23 21 11 11 19 11 6 10 9 6 4 6 9 9 10 5 9 4 5 3 2 6 5 5 5 2 4

GFSGBSN_925_spd_075.txt.gz
Wind_Speed
11 11 11 11 14 15 14 14 12 13 14 15 16 17 18 19 21 22 23 24 23 22 21 20 21 22 15 4 11 21 11 8 8 7 9 6 10 9 8 7 8 7 6 6 1 6 6
13 12 12 14 14 13 13 16 18 16 15 16 17 17 19 20 22 24 25 25 25 23 21 19 18 19 4 10 14 11 17 10 11 11 8 12 8 11 8 7 7 10 8 5 3 7 3
13 14 16 16 16 14 16 16 16 18 21 19 17 17 19 20 22 24 27 28 27 26 23 19 15 12 8 22 17 12 19 17 14 18 7 19 24 8 7 8 8 11 8 9 3 4 4
16 16 17 15 16 18 18 18 16 17 18 19 21 18 19 20 23 25 28 31 31 29 23 19 14 7 9 19 19 25 19 25 17 20 25 22 23 11 2 7 10 9 7 6 10 5 7
17 16 16 17 19 18 18 20 19 19 20 19 20 20 19 20 22 25 30 34 33 23 18 13 8 7 11 15 12 24 25 18 21 20 25 23 12 2 6 5 6 6 10 12 15 10 4
18 18 17 18 19 19 20 21 19 21 20 19 19 18 17 18 19 23 30 37 25 18 8 6 9 4 9 5 10 14 18 23 8 6 6 5 2 3 4 2 8 9 6 5 6 6 9
20 19 19 19 20 19 19 20 20 20 21 21 20 20 19 19 20 21 28 16 3 1 5 9 10 7 10 12 24 6 19 16 7 5 10 8 5 12 12 14 17 17 14 8 5 1 4
22 21 21 21 21 20 19 20 20 20 20 20 20 19 20 20 20 21 20 5 8 6 10 15 21 21 32 25 10 17 13 9 8 13 8 9 18 13 16 18 18 20 6 7 7 7 6
24 24 24 23 22 22 21 20 21 21 20 20 19 18 17 19 17 21 13 15 27 32 6 13 23 16 23 22 17 20 10 10 10 11 15 16 9 18 19 20 18 6 5 7 7 6 4
27 28 26 24 24 23 23 22 22 23 22 21 19 18 17 16 12 15 8 16 19 14 5 8 9 9 14 10 9 28 21 9 7 20 18 12 19 20 20 19 8 5 9 9 6 5 2
29 28 29 28 27 27 27 25 23 23 21 20 19 18 15 10 16 10 13 24 29 3 4 7 6 8 10 17 6 11 38 12 18 19 11 15 10 19 20 13 7 8 7 1 3 6 5
29 29 30 29 29 29 28 27 26 23 22 20 19 18 16 13 16 21 23 22 12 3 11 6 5 6 7 20 8 6 14 16 4 14 16 13 13 11 14 10 8 5 4 6 2 1 4
34 34 32 32 31 31 30 29 28 25 24 22 20 18 18 15 8 13 21 9 1 7 5 6 4 7 7 10 15 10 12 14 14 12 17 20 19 13 15 10 7 6 3 2 4 1 6
34 34 34 33 33 32 31 31 30 27 26 24 22 20 21 22 21 18 9 1 11 16 22 6 6 13 9 7 15 19 15 15 18 12 8 14 11 20 9 15 8 7 8 5 6 2 3
38 37 37 36 35 35 34 33 31 30 28 25 22 22 21 23 19 17 3 10 13 18 12 17 24 19 11 10 7 16 21 18 21 20 15 12 13 4 18 5 9 4 6 10 5 2 3
39 39 38 39 39 38 37 35 33 31 28 25 23 16 20 25 21 13 5 25 18 21 20 24 12 9 11 9 6 9 7 8 16 23 19 5 4 16 11 6 9 10 4 4 2 7 5
41 41 41 42 40 40 38 36 35 33 30 26 23 5 13 28 24 5 17 15 20 22 16 14 16 20 22 19 13 15 8 12 15 18 18 22 10 10 11 14 13 5 9 3 2 5 6
43 43 43 44 43 40 40 39 37 35 31 25 8 5 23 35 10 6 19 21 11 17 15 18 15 22 22 17 16 18 23 8 9 5 23 11 4 10 20 15 21 17 9 9 5 5 4
45 45 45 43 43 43 41 40 37 35 32 20 3 3 23 30 14 15 13 21 25 20 20 12 12 14 21 21 8 13 10 16 5 5 7 6 4 9 12 12 13 17 7 8 6 4 6
47 46 44 44 44 42 41 40 39 37 35 31 4 5 5 12 7 15 16 20 22 19 25 23 21 18 17 20 7 10 18 8 7 7 10 9 5 15 14 11 3 7 9 9 7 5 4
46 47 47 46 45 44 44 42 41 39 38 31 6 5 7 9 18 15 20 10 24 20 20 8 15 21 20 13 10 9 7 18 13 8 7 7 16 19 18 18 11 9 10 12 11 11 7
47 47 46 46 45 44 43 43 43 41 40 30 6 5 8 6 18 24 21 17 20 21 20 21 23 21 13 16 9 12 17 10 11 9 7 5 5 4 15 13 14 14 11 15 13 10 7
46 45 44 44 43 44 44 44 45 44 44 19 20 12 3 13 15 20 23 27 20 19 16 24 19 20 19 20 7 10 3 11 10 10 5 8 5 4 13 12 7 10 11 8 9 13 9
40 41 41 42 42 42 44 46 47 49 53 32 17 9 9 7 19 18 21 26 23 21 21 19 18 18 17 9 2 2 2 13 16 21 14 4 6 4 4 2 14 4 4 5 9 11 6
37 39 40 41 41 41 42 43 45 53 55 45 19 13 9 16 10 19 17 20 22 23 26 22 18 14 6 8 5 4 5 2 9 14 14 3 3 2 5 10 4 11 5 4 5 8 6
39 40 41 43 43 43 44 46 46 47 55 54 39 29 11 12 19 15 19 17 13 18 19 20 17 5 2 6 4 6 5 4 4 5 9 7 3 4 2 4 9 3 9 6 3 6 4
43 43 44 45 46 47 47 47 49 48 49 53 29 33 15 13 10 18 15 15 13 13 10 10 7 8 7 4 6 5 9 10 5 5 4 3 3 4 1 2 6 5 13 2 6 7 6
47 46 45 47 49 48 50 50 50 49 48 46 32 42 22 8 5 21 9 8 7 8 8 5 7 7 2 5 4 4 4 8 6 6 4 5 6 6 4 4 4 10 3 8 5 6 5
37 38 40 40 40 45 47 51 50 49 48 46 8 39 39 3 6 8 10 25 13 6 2 4 7 7 5 4 4 3 3 2 7 5 3 6 5 4 4 4 8 6 4 1 3 3 4

GFSGBSN_925_spd_078.txt.gz
Wind_Speed
12 12 11 12 11 13 11 11 14 15 13 13 15 16 17 19 21 23 25 26 26 25 25 23 19 20 12 3 11 14 15 10 8 7 7 4 3 3 3 4 6 6 8 9 7 8 4
13 14 14 14 14 12 12 11 11 13 14 16 18 17 17 19 21 25 27 28 28 28 26 23 18 16 3 7 11 9 10 14 11 11 6 7 6 5 5 6 2 6 6 11 7 7 3
15 17 16 15 13 14 15 14 13 14 15 15 16 17 18 19 20 24 28 31 31 31 29 25 15 8 9 20 12 6 4 11 11 14 6 16 17 1 3 8 5 6 8 10 7 3 2
16 16 15 15 17 17 16 14 15 15 16 17 18 18 18 18 20 23 28 32 35 34 25 17 7 4 9 17 19 26 22 21 24 20 25 20 15 6 5 6 8 6 5 4 11 3 4
17 19 17 16 17 17 17 17 17 17 16 17 17 18 19 17 20 23 28 35 35 27 21 7 3 6 11 10 9 13 21 10 10 13 18 19 8 7 4 2 5 3 6 6 11 7 5
18 20 19 17 17 18 18 18 17 17 18 16 17 18 19 20 22 25 31 41 22 9 1 4 4 2 10 5 4 10 11 19 6 4 4 4 4 5 2 3 6 7 4 5 8 6 5
22 20 20 19 18 18 17 16 17 17 17 16 17 16 18 20 22 24 30 17 5 3 5 7 7 7 11 4 16 6 5 11 4 3 8 4 3 12 11 9 7 5 11 14 16 13 6
24 22 23 21 20 19 19 17 17 17 17 16 16 16 16 18 21 22 20 2 4 6 11 16 22 24 35 19 10 18 4 7 7 10 6 6 17 11 8 7 9 9 13 19 18 5 5
24 24 23 20 20 21 19 18 17 17 17 17 16 15 14 18 21 12 12 10 17 17 6 10 17 14 15 21 17 22 5 6 8 8 10 13 7 17 11 12 13 15 13 18 8 5 1
24 25 23 23 21 22 20 19 18 18 18 17 17 16 12 13 13 11 10 18 25 18 5 7 8 8 13 9 9 34 17 7 7 17 10 9 15 13 11 16 12 11 15 10 5 3 2
25 26 25 23 21 22 23 22 20 18 17 16 14 13 10 7 14 6 10 26 32 2 5 5 5 4 8 15 5 7 32 7 11 12 9 11 11 14 19 17 10 13 18 6 4 3 2
25 24 22 22 23 25 26 23 22 21 18 16 14 12 9 8 13 15 20 26 11 1 10 6 4 5 7 8 3 4 5 1 4 5 8 15 7 7 14 14 16 17 5 4 4 2 2
25 25 27 28 26 25 23 24 23 21 19 17 15 13 11 10 4 4 15 10 1 7 5 4 1 8 4 7 5 1 4 17 8 9 15 10 19 9 5 10 7 7 5 2 3 3 6
30 30 28 26 26 26 25 25 24 22 20 18 16 15 16 16 17 11 8 0 11 6 12 10 9 18 6 7 6 5 4 6 16 3 6 11 6 16 13 15 9 8 9 6 5 4 4
29 29 29 29 29 28 28 27 25 24 21 19 16 18 18 22 17 9 1 10 9 3 5 6 10 9 4 5 9 7 6 9 9 17 6 8 12 6 14 13 14 7 5 9 6 1 1
33 33 32 32 31 30 30 29 28 25 22 20 18 11 18 22 17 10 5 18 8 3 10 12 6 4 3 10 7 13 5 4 9 12 16 5 3 14 5 13 9 10 7 4 1 7 4
36 35 34 33 32 32 31 31 29 25 23 21 18 4 9 27 22 5 14 11 12 18 13 3 5 8 11 11 7 5 6 21 10 11 12 17 2 6 8 11 10 2 4 3 6 6 6
38 36 36 35 35 34 34 33 30 27 23 23 8 6 21 34 8 6 16 12 9 11 6 11 9 11 13 7 7 7 13 10 18 21 13 15 10 12 15 6 2 11 13 10 5 5 3
38 38 38 38 37 37 37 36 33 29 27 14 4 4 20 26 11 15 10 17 18 16 11 4 5 9 1 6 6 6 7 3 16 15 8 7 10 4 16 11 6 5 7 11 7 5 9
41 42 42 41 41 41 40 37 35 32 31 31 3 5 5 9 6 19 19 11 18 13 26 21 16 15 12 11 9 8 4 7 15 18 26 16 7 21 16 6 3 2 11 17 14 7 6
44 44 44 44 44 43 42 39 37 35 34 31 5 5 5 9 15 14 19 10 21 16 12 9 9 26 19 6 4 17 5 5 10 15 10 4 6 4 12 7 5 10 16 16 16 9 12
42 42 41 41 42 42 42 41 39 38 35 27 6 5 5 1 14 22 21 19 20 16 20 23 21 10 10 19 15 13 10 1 6 11 12 11 4 5 4 9 10 16 21 14 11 8 8
45 44 43 43 43 43 43 42 40 39 37 15 15 9 4 11 11 16 19 24 18 20 15 25 20 10 16 17 17 12 6 4 6 2 9 7 5 5 5 10 13 9 16 19 6 6 9
40 39 39 40 40 41 41 42 43 42 46 30 13 9 6 8 16 17 19 22 26 22 21 11 10 18 19 9 11 8 4 3 10 11 8 8 12 2 3 6 8 8 12 19 11 11 8
32 33 34 35 35 36 39 40 42 45 47 39 21 13 7 11 9 18 21 16 21 20 25 23 21 18 6 5 5 4 4 4 9 12 12 11 9 4 5 7 3 8 12 5 7 9 7
33 33 34 34 35 35 36 37 39 43 49 48 38 21 9 7 17 12 13 17 12 14 16 21 22 15 4 3 4 7 5 4 4 6 1 5 10 5 2 7 8 4 15 16 1 6 5
36 37 37 37 38 38 38 39 39 40 43 45 25 34 12 8 7 16 9 11 12 9 3 4 7 11 7 3 6 4 6 8 4 4 5 4 4 3 1 1 6 8 7 7 8 7 5
38 40 42 43 43 42 42 42 41 42 43 43 31 38 24 5 6 16 14 13 10 9 6 4 2 2 2 5 4 4 4 7 5 5 6 5 4 2 3 1 6 4 8 6 6 4 4
42 43 43 42 45 46 46 46 45 45 44 44 13 27 39 6 2 21 29 29 22 14 5 5 4 3 5 3 1 2 2 2 5 5 5 5 7 3 5 6 5 4 2 6 5 2 4

GFSGBSN_925_spd_081.txt.gz
Wind_Speed
12 10 12 10 10 10 10 10 10 11 14 15 17 19 19 19 19 21 22 25 26 26 24 25 20 20 10 3 10 8 9 12 8 9 8 6 5 4 4 2 2 6 5 4 9 11 7
14 14 12 11 11 12 11 11 11 12 14 15 16 18 18 21 21 22 24 25 26 26 26 24 19 14 3 5 7 7 7 9 11 11 5 7 6 6 3 4 2 3 5 8 7 10 5
14 13 14 15 16 15 15 14 12 13 14 16 18 18 20 20 21 23 25 26 29 28 27 25 15 6 6 19 12 5 5 5 7 11 3 8 5 4 1 6 2 3 7 8 7 4 4
15 16 15 15 15 14 13 16 16 15 14 15 17 18 20 21 22 26 29 32 35 35 31 18 5 3 9 14 20 26 21 22 21 19 15 16 10 4 4 4 6 5 1 3 3 4 5
18 17 16 17 16 14 15 14 15 16 15 16 17 17 19 22 23 26 31 35 39 23 9 6 6 3 11 11 10 12 14 9 15 14 17 10 6 6 1 2 4 2 4 5 9 3 3
18 17 18 19 18 17 15 15 15 14 15 16 17 18 18 21 23 27 32 35 11 9 13 10 4 1 8 5 5 13 9 11 3 6 2 5 3 4 3 4 6 5 3 3 5 4 2
19 18 20 19 18 20 17 15 16 15 15 15 16 18 18 20 22 26 31 11 6 3 6 6 5 6 8 9 9 4 7 5 4 3 8 5 4 12 14 8 3 3 2 4 14 13 3
22 24 21 19 19 18 16 17 17 16 16 16 16 17 17 19 21 24 11 4 4 7 12 16 18 20 37 17 9 16 3 6 6 8 6 3 16 6 7 7 6 5 5 12 11 9 4
23 22 22 20 19 17 17 17 17 16 16 17 16 16 17 17 19 9 12 1 15 13 6 8 10 10 12 18 15 22 5 3 6 7 9 11 6 12 12 7 7 8 7 10 7 11 5
25 23 21 23 21 18 17 17 18 18 17 17 15 14 14 16 11 13 8 12 19 10 4 7 5 7 5 5 7 19 17 9 6 13 6 8 13 4 5 12 10 11 10 10 10 6 4
26 29 26 21 22 21 20 19 18 17 16 16 15 12 11 9 13 8 8 21 22 2 6 2 2 1 5 8 3 2 21 7 10 7 7 9 8 17 13 14 10 10 7 9 9 11 2
29 26 26 25 21 19 19 18 20 19 18 17 14 11 8 11 9 15 16 22 3 2 9 6 2 5 2 7 5 2 4 2 8 4 5 10 4 9 14 15 12 8 2 1 2 2 3
27 28 26 22 19 22 26 21 19 18 17 16 14 13 10 11 3 4 17 8 2 5 6 3 3 5 5 3 4 3 5 12 7 11 14 3 12 4 2 6 6 5 3 2 3 1 7
29 29 25 25 26 25 21 19 19 19 17 15 15 13 13 17 12 12 8 2 9 4 5 9 7 8 2 11 5 6 4 6 8 1 4 12 8 14 7 11 5 7 9 5 6 4 5
27 27 27 27 25 23 21 22 21 20 18 16 14 14 11 21 14 6 2 6 6 4 3 6 7 5 4 5 6 9 5 2 6 9 5 6 8 4 11 7 13 5 5 11 5 1 3
30 28 29 30 30 28 25 23 22 20 19 17 15 10 13 18 13 9 4 11 6 1 4 4 2 4 5 7 8 6 4 3 7 10 8 4 3 7 6 8 15 11 6 2 2 7 5
30 29 28 29 29 29 27 24 22 21 20 18 13 4 6 23 19 4 11 7 3 8 7 4 1 5 3 4 5 4 4 6 3 8 11 6 6 5 2 6 10 4 6 3 5 5 6
32 32 32 32 30 29 27 25 24 22 21 19 7 7 17 29 8 5 15 6 6 5 2 6 4 4 6 6 5 4 4 5 8 5 5 4 5 12 24 9 3 10 12 10 5 4 3
33 34 33 32 32 30 29 27 26 26 25 12 5 6 21 24 11 14 10 18 10 8 4 3 4 8 3 4 5 9 7 4 4 5 6 10 4 4 7 9 17 5 4 4 2 4 9
37 37 36 36 34 33 32 31 30 30 30 27 2 5 5 8 5 18 19 17 12 11 17 11 4 5 4 3 6 7 6 5 6 6 6 6 5 12 14 6 5 5 6 1 7 6 5
39 39 38 39 38 36 35 35 34 34 34 27 6 5 5 9 10 13 16 9 17 12 12 11 4 21 17 10 11 17 16 12 11 2 2 6 7 14 18 17 5 5 5 3 2 9 10
43 44 44 43 42 41 40 39 38 38 36 30 6 4 5 1 13 20 18 18 22 18 13 10 12 8 11 13 16 6 6 9 5 2 2 3 5 15 6 13 17 15 9 9 4 9 12
46 46 43 42 43 43 43 43 43 42 40 15 16 8 3 9 8 14 18 23 19 17 10 20 16 15 13 23 17 19 16 13 7 4 2 0 5 6 5 5 5 3 16 13 8 8 9
44 45 45 44 44 43 43 44 44 45 47 31 9 6 4 8 14 15 16 22 21 16 22 10 19 15 22 8 7 10 13 17 15 11 11 8 3 3 4 1 4 8 9 15 18 18 17
40 37 34 36 36 38 40 41 43 45 48 40 20 10 6 10 9 16 20 14 16 17 20 17 19 14 2 4 3 5 3 3 10 13 14 10 5 4 3 3 4 4 5 9 12 16 23
29 29 29 28 27 29 31 37 41 42 46 45 31 19 8 5 16 11 12 18 10 13 16 19 21 15 3 6 4 5 4 5 4 3 9 13 9 4 1 3 8 6 10 6 3 11 9
29 29 29 31 31 31 30 31 33 40 43 43 22 34 9 5 5 14 10 13 11 9 3 4 9 7 12 5 3 4 4 3 4 3 3 3 3 6 7 6 6 6 7 1 6 7 7
32 32 33 33 34 34 34 33 33 35 40 45 30 34 23 2 7 13 13 10 9 12 6 2 3 2 5 6 5 4 3 6 5 4 4 5 5 2 2 4 5 1 4 1 1 9 3
34 35 36 37 37 36 36 36 35 36 38 42 15 36 37 6 1 23 28 28 32 20 10 5 3 3 5 4 3 2 3 1 5 6 4 6 5 4 5 3 23 7 4 5 4 3 7

GFSGBSN_925_spd_084.txt.gz
Wind_Speed
14 11 11 11 13 13 14 14 14 15 13 16 17 17 17 19 20 22 22 24 24 24 25 25 26 22 9 4 10 7 5 5 3 8 7 4 4 5 5 4 4 5 6 5 9 9 8
16 16 17 16 16 15 16 15 14 14 16 15 18 21 19 20 23 23 23 26 28 28 27 26 23 17 3 5 6 7 6 6 8 9 6 7 5 6 3 4 6 5 4 9 9 8 6
16 15 15 14 14 14 15 16 17 17 15 16 15 18 21 21 24 26 27 28 31 32 31 28 19 8 5 18 6 8 8 6 4 4 4 5 3 1 2 2 3 4 5 7 6 3 5
18 16 16 16 16 16 16 17 17 17 16 15 17 17 20 23 25 27 30 34 35 36 26 18 8 5 9 12 15 22 18 21 20 14 10 5 3 3 3 3 5 2 4 4 4 3 2
17 17 17 18 17 18 18 18 17 17 16 17 17 18 19 21 24 28 33 36 28 14 9 7 8 6 10 8 8 6 8 8 11 18 11 2 5 5 2 4 3 4 3 4 8 4 2
21 19 19 18 17 18 18 19 19 17 17 17 17 16 20 20 23 27 34 29 6 6 11 9 4 2 7 4 5 8 3 5 1 7 5 5 3 4 2 4 7 6 4 4 7 3 4
19 19 21 20 19 19 21 19 20 18 19 17 17 18 18 21 22 25 26 10 6 4 5 5 4 6 6 11 7 4 2 2 1 4 7 6 4 11 13 6 6 4 3 3 8 5 4
22 22 21 19 22 21 19 16 19 19 18 18 18 18 19 19 21 22 13 4 5 7 12 14 19 17 31 11 6 4 1 5 4 6 6 2 11 10 9 9 7 4 4 8 10 6 6
24 23 24 24 21 22 21 18 16 20 19 19 20 18 17 20 19 8 11 1 15 15 6 7 5 6 7 13 11 18 4 4 6 6 10 14 4 12 11 6 8 6 10 5 8 7 5
22 24 25 25 22 18 20 18 17 18 21 21 17 16 16 18 9 12 5 9 21 8 4 7 4 6 4 7 6 16 16 8 5 10 6 8 14 3 6 11 10 9 9 9 6 3 4
22 24 24 23 22 23 24 22 20 17 16 16 16 15 13 9 13 7 6 20 23 3 6 0 4 3 2 5 6 2 11 5 11 6 6 7 4 9 8 6 10 9 7 8 5 5 2
27 28 27 27 26 25 23 18 16 17 19 18 17 15 12 9 6 11 12 21 3 1 8 3 2 2 2 4 4 1 3 2 6 3 2 6 3 7 9 9 11 3 3 5 2 2 3
25 25 24 25 26 23 18 17 19 25 20 17 16 13 11 10 3 7 20 7 2 5 5 2 3 4 4 4 4 5 4 6 4 5 13 2 8 3 3 4 7 6 5 2 2 1 5
28 29 29 25 25 22 20 21 23 18 18 17 16 14 13 15 11 10 8 2 8 3 4 4 5 7 4 8 4 7 3 3 5 1 2 10 8 10 6 8 7 9 10 5 6 4 4
25 26 24 26 25 21 22 22 19 17 17 16 14 14 10 17 11 5 3 3 5 4 3 5 3 5 4 5 5 6 5 5 7 6 3 3 5 5 7 11 12 5 8 8 4 1 2
29 29 30 27 24 22 23 21 21 18 18 15 12 7 12 13 9 7 3 8 4 2 5 4 2 4 5 6 7 8 5 3 4 6 3 4 5 4 5 4 6 9 6 3 1 5 5
29 28 26 25 24 25 24 22 21 19 17 15 9 3 7 19 15 3 7 5 2 8 3 4 3 3 2 4 4 4 2 3 4 6 5 6 3 7 9 3 8 3 9 3 5 5 6
30 27 26 27 25 25 23 22 22 21 18 15 6 4 10 25 7 3 11 4 2 5 5 4 1 2 2 3 3 1 4 4 5 3 4 3 3 4 11 16 12 4 7 12 10 4 3
27 26 26 27 25 24 25 25 24 22 21 8 3 3 14 17 9 12 4 11 8 4 3 2 3 5 2 2 2 5 6 6 4 5 5 5 2 5 7 5 3 5 5 5 2 2 8
29 27 28 27 26 27 27 26 25 25 24 20 2 4 4 6 6 12 16 13 12 6 14 6 2 2 2 1 3 2 4 5 8 9 5 3 4 6 5 9 15 12 8 14 8 5 7
32 32 32 32 30 31 31 30 29 29 27 22 6 5 5 5 9 14 12 5 18 11 8 9 5 11 6 4 4 9 10 13 13 10 5 3 4 3 11 14 20 26 22 10 15 12 10
36 36 36 36 36 35 35 33 32 31 31 25 6 5 4 3 3 14 16 15 15 15 10 7 8 7 11 10 10 4 3 3 4 3 2 2 3 3 7 13 18 20 21 14 14 5 6
41 40 40 40 40 40 39 39 37 36 34 17 20 7 5 8 12 11 16 18 17 17 9 18 14 12 12 15 11 12 13 10 7 7 1 2 3 2 9 10 20 10 24 21 8 6 6
44 43 42 41 43 43 43 42 42 43 45 32 17 9 7 9 15 18 16 20 20 18 21 8 13 15 17 5 5 5 10 15 14 13 9 7 3 2 5 7 8 8 5 14 14 12 9
42 41 41 41 42 42 43 44 44 46 47 41 33 10 5 11 10 11 15 13 17 18 19 17 17 13 7 2 3 4 2 2 9 16 16 16 7 3 3 4 8 15 6 5 7 18 14
38 35 34 34 34 31 38 41 44 47 49 47 38 34 5 6 17 13 13 16 10 11 11 14 13 10 5 2 2 3 3 4 3 3 14 13 11 7 3 3 5 6 9 15 0 10 6
32 31 29 25 25 26 25 25 34 43 46 47 24 39 13 5 5 14 13 13 12 8 3 4 8 10 13 4 4 4 5 4 3 2 3 5 6 14 8 5 6 4 9 19 6 5 6
31 30 28 29 28 28 30 30 31 30 39 44 34 33 26 2 7 10 14 9 10 13 5 3 5 2 5 7 4 4 3 5 4 4 3 6 5 4 4 5 7 3 11 6 5 7 7
32 31 30 30 30 31 31 32 32 33 32 39 14 32 38 7 2 21 25 28 26 20 10 4 3 3 4 3 3 2 3 0 5 3 4 5 6 3 6 4 4 3 6 18 11 10 8

GFSGBSN_925_spd_087.txt.gz
Wind_Speed
14 16 15 16 17 17 15 14 15 16 17 16 17 18 19 20 23 23 24 25 25 26 26 27 23 20 9 3 9 14 9 3 2 12 7 5 6 6 6 5 4 6 6 6 10 6 7
16 16 14 13 14 14 14 16 17 17 18 18 18 19 21 23 24 26 28 29 28 30 29 28 20 13 0 6 7 9 5 4 7 8 6 6 6 7 4 5 7 2 6 10 7 9 6
14 15 15 17 15 15 15 16 17 17 18 19 18 19 20 22 25 27 30 33 33 34 31 23 13 5 3 19 7 8 6 3 4 5 4 7 4 4 6 2 3 3 7 8 8 5 4
16 16 16 15 16 18 16 17 16 16 17 18 19 21 22 23 24 26 30 33 33 25 20 13 9 8 9 8 9 17 19 20 20 14 8 5 4 2 2 1 1 2 1 6 1 3 3
17 18 17 16 16 16 17 18 16 17 17 18 19 21 22 24 26 27 30 29 25 10 11 6 9 6 10 7 5 6 10 6 7 15 13 1 4 4 2 4 3 1 7 6 7 1 3
18 17 18 18 19 19 17 19 19 18 19 18 19 20 21 23 27 29 29 26 4 2 6 4 4 3 7 3 4 5 5 6 3 11 4 5 2 4 3 7 11 8 5 5 8 3 1
20 20 21 19 19 21 22 20 18 17 17 18 18 20 23 25 24 26 26 9 6 2 4 5 7 6 7 12 5 3 3 3 5 4 10 6 8 13 23 15 5 6 5 6 5 5 4
18 21 21 20 22 21 19 19 18 18 18 18 19 21 23 23 23 22 11 4 4 5 12 16 21 17 26 15 7 7 2 5 6 7 8 4 13 15 8 9 13 7 8 12 12 2 7
21 23 20 20 21 21 22 17 19 17 15 19 20 22 21 22 22 7 7 4 11 9 6 8 5 5 6 16 9 11 4 2 6 7 15 13 5 14 13 10 12 16 17 13 13 9 3
21 21 19 17 19 19 20 17 14 16 18 18 17 17 18 21 8 11 4 9 17 3 4 6 4 5 4 6 5 9 14 9 4 11 8 10 11 8 10 14 15 14 11 13 11 5 6
21 21 24 24 24 23 21 21 19 19 20 13 15 17 17 13 15 5 7 16 16 3 5 1 2 3 1 5 6 1 5 5 13 5 5 6 6 16 10 8 13 12 7 13 11 8 5
25 22 21 20 21 22 22 22 21 17 15 17 19 17 16 13 8 9 9 20 2 1 8 4 3 2 2 5 3 1 3 1 4 8 3 4 2 6 9 12 14 3 4 2 2 2 7
19 20 20 20 21 19 19 21 18 14 16 18 15 13 12 11 4 11 16 6 3 5 4 2 3 4 2 5 3 3 3 5 3 5 10 4 8 3 4 4 5 9 6 4 4 4 8
25 27 26 24 21 20 20 19 16 17 16 14 13 12 14 16 11 11 8 1 9 2 4 3 3 5 4 9 6 6 4 3 6 4 1 9 7 12 8 13 6 14 13 4 6 6 7
24 22 22 21 20 19 20 20 18 18 14 13 11 11 10 18 11 9 2 5 5 5 4 5 4 2 3 4 3 4 5 3 5 8 2 3 4 2 6 10 15 6 8 14 2 1 1
26 26 26 26 23 22 20 18 17 14 13 12 5 3 12 13 8 8 3 8 4 1 4 3 1 2 3 6 4 4 3 3 2 8 3 5 4 3 3 3 5 7 8 5 6 7 11
28 26 24 23 24 22 20 19 18 17 16 11 4 2 8 16 14 4 7 6 3 1 2 2 2 2 3 3 3 4 4 1 4 8 5 6 1 6 5 1 6 5 10 2 3 4 8
27 26 25 26 26 22 19 17 16 14 15 9 3 4 4 24 6 3 7 4 3 3 2 2 1 2 2 1 1 1 3 2 5 4 4 6 1 2 4 10 8 5 3 11 10 8 3
26 24 26 23 20 22 20 20 18 18 15 9 2 3 5 14 7 9 6 9 6 3 2 3 2 1 1 3 3 3 3 3 10 5 5 6 1 3 5 0 3 3 6 7 4 5 18
26 27 25 23 21 23 22 21 22 19 19 18 2 3 4 6 6 9 12 9 8 7 14 6 3 1 1 3 3 1 2 3 7 9 6 1 3 7 6 5 3 7 14 17 10 10 12
27 26 26 24 23 24 22 22 22 21 20 18 5 5 4 5 10 14 12 6 17 10 7 6 3 11 4 4 3 3 3 9 9 8 4 5 5 6 11 10 14 13 14 17 20 18 14
29 27 27 25 26 26 25 26 26 25 24 18 4 3 2 4 6 15 14 13 15 15 8 8 9 7 14 11 10 8 4 1 4 6 4 4 1 2 6 13 15 18 20 20 22 20 21
30 31 32 32 33 31 31 31 30 29 30 13 11 2 2 3 10 5 12 17 19 15 11 14 13 11 10 10 8 7 8 10 10 9 5 4 2 1 4 1 8 12 12 12 19 19 17
37 38 38 38 38 38 36 36 35 36 37 25 11 7 4 5 10 9 12 12 18 18 17 11 16 13 5 6 9 8 12 15 13 15 12 5 4 2 5 6 9 8 5 11 14 22 18
40 40 40 41 41 40 40 40 40 40 40 32 21 12 6 10 8 13 14 14 13 15 16 16 9 2 5 3 3 4 3 4 9 17 18 16 8 4 4 7 15 17 4 1 4 18 13
38 37 36 36 37 36 38 41 46 44 41 41 33 29 9 8 16 16 13 13 10 10 12 13 5 5 2 3 3 3 3 3 2 3 12 13 13 8 5 7 6 4 4 1 1 10 19
35 33 31 30 30 31 33 35 39 43 46 44 22 40 18 10 5 12 13 13 9 9 5 5 6 6 8 4 8 4 3 2 3 2 5 5 6 15 11 9 10 5 6 3 3 5 23
30 28 28 28 26 23 23 23 24 37 46 44 34 34 32 9 14 8 12 13 10 11 6 4 4 6 4 7 5 4 5 6 5 6 4 8 7 5 7 6 9 4 3 2 2 8 17
29 30 29 28 27 24 24 25 24 21 32 46 18 37 37 8 4 30 31 22 19 17 9 7 4 3 5 4 4 3 3 2 6 5 4 6 7 4 7 3 5 5 3 7 7 4 15

GFSGBSN_925_spd_093.txt.gz
Wind_Speed
14 12 13 11 13 15 13 12 14 16 17 20 19 20 21 21 23 24 25 27 27 26 27 27 27 21 12 9 20 13 7 2 5 13 16 15 18 17 20 18 19 21 19 21 18 16 18
13 13 12 12 14 14 13 15 14 15 18 18 20 22 23 25 25 26 28 28 27 27 27 28 19 12 10 16 9 7 8 9 15 16 19 18 16 15 17 17 19 17 17 17 21 19 18
13 13 13 14 16 14 15 16 15 16 17 16 20 23 24 25 27 29 30 28 28 29 29 20 15 7 11 23 9 6 9 9 11 17 18 20 19 15 10 17 17 19 20 21 22 21 22
16 16 15 15 14 17 17 18 17 17 17 19 19 21 24 24 27 31 31 29 29 29 18 14 10 8 8 10 11 15 17 21 13 10 15 16 14 17 19 17 16 15 18 20 19 18 16
16 18 18 18 19 17 16 18 20 17 19 19 20 19 22 24 28 32 30 30 27 16 10 4 4 9 10 3 9 10 12 18 17 20 21 15 13 17 16 17 16 16 18 20 21 13 11
16 18 18 18 20 21 19 18 19 21 18 21 19 18 21 24 28 31 31 27 18 13 7 8 9 6 10 6 6 10 9 8 11 12 15 16 11 16 19 17 18 19 20 21 19 15 10
18 19 19 18 19 21 20 20 21 23 21 19 18 18 19 23 28 27 27 18 5 8 12 12 12 17 23 18 9 9 9 9 12 12 18 20 17 22 26 24 23 21 23 18 15 10 6
18 19 19 18 19 21 21 21 20 20 21 21 16 14 18 22 25 25 14 8 5 6 14 19 24 25 32 27 13 14 10 10 16 17 19 18 24 23 23 22 22 23 22 22 20 18 8
21 21 21 18 19 22 22 18 17 19 19 16 15 16 18 20 25 12 8 3 5 12 8 13 18 13 13 16 17 18 16 15 19 19 20 21 19 24 24 22 21 22 22 19 22 18 9
20 22 23 23 24 24 22 22 21 19 18 17 15 15 15 20 14 9 8 2 8 9 6 7 7 5 7 5 9 19 20 18 17 24 20 20 22 18 16 26 22 22 19 19 21 17 14
27 27 23 21 21 22 23 22 21 20 19 17 18 14 11 14 15 12 6 9 10 2 6 6 8 8 8 9 6 8 8 15 25 21 14 21 16 23 20 21 19 20 14 15 20 15 17
26 27 29 28 27 27 26 20 18 18 18 19 17 13 11 15 11 11 9 11 5 7 13 5 7 9 10 11 7 5 5 9 12 25 21 21 12 13 21 18 15 8 13 14 11 15 15
24 25 23 24 22 21 19 20 20 21 21 18 15 13 11 12 9 1 9 12 7 9 1 9 6 7 7 6 10 8 8 14 9 14 21 19 22 13 10 15 14 15 10 6 4 10 13
23 23 18 19 21 23 24 24 23 22 21 15 13 13 14 13 12 8 11 8 13 9 19 7 3 8 11 5 7 8 9 12 10 12 12 19 20 24 16 15 12 19 18 7 11 9 11
23 23 19 19 22 22 21 20 17 16 18 17 13 15 16 15 12 11 8 13 11 14 14 7 11 12 10 6 5 7 12 13 4 6 9 4 14 2 22 22 17 15 16 18 18 15 8
20 19 20 20 20 18 18 21 22 20 16 13 15 14 19 11 12 15 9 23 17 13 8 6 14 4 14 10 7 6 11 3 6 3 8 1 5 2 10 9 16 25 10 12 11 15 12
19 19 20 21 21 17 17 19 20 20 15 10 10 4 4 15 15 7 13 18 17 4 4 7 10 7 9 0 5 4 5 6 1 2 7 6 5 9 5 10 12 13 17 13 12 13 10
20 19 20 22 20 19 17 19 16 16 13 11 5 5 9 16 8 7 13 16 11 10 10 11 6 8 9 1 4 2 4 5 5 6 7 5 4 6 8 5 9 11 14 19 11 14 12
20 20 21 21 21 18 16 17 15 17 14 9 4 8 6 14 8 12 13 15 16 14 14 15 13 7 4 8 4 5 1 4 6 4 5 5 4 6 5 8 5 7 9 7 9 7 14
23 21 20 21 19 17 17 16 15 17 14 15 3 4 7 7 10 14 15 16 15 16 18 17 14 12 12 13 10 7 2 1 0 2 3 5 8 9 8 7 7 3 9 9 6 7 11
21 20 20 22 22 20 18 18 16 17 17 14 3 6 6 5 11 15 14 9 18 16 13 13 18 20 16 15 15 16 15 12 8 7 8 4 10 11 13 14 14 14 13 14 16 14 14
22 23 24 22 21 21 19 20 20 21 18 17 3 5 10 13 9 17 16 18 15 15 16 14 14 14 16 18 16 7 13 12 10 5 5 3 8 10 12 14 15 18 20 20 21 20 21
25 24 23 22 24 23 21 22 23 22 19 6 6 20 8 6 14 12 12 19 18 16 9 18 13 11 12 11 14 12 10 10 9 6 3 4 4 3 10 10 9 10 17 19 20 22 20
26 25 23 23 22 22 22 21 23 23 25 15 8 12 8 13 12 13 17 8 12 15 16 14 13 11 7 3 3 8 11 13 14 14 12 6 7 3 5 3 6 10 8 9 14 16 14
26 24 24 24 25 26 26 26 26 26 26 27 22 11 6 10 15 18 18 13 9 10 13 15 13 11 2 5 4 7 8 10 17 20 18 17 7 4 4 8 12 16 6 7 7 11 14
29 27 27 28 31 32 33 33 33 32 31 29 29 24 9 7 16 17 14 14 11 11 13 15 13 6 4 0 4 5 7 10 8 8 20 17 14 6 6 7 5 7 6 6 11 6 5
30 30 31 32 34 33 34 34 35 37 35 34 23 30 15 9 14 15 13 14 14 11 8 7 13 9 7 4 5 8 10 3 4 9 15 13 9 13 12 7 8 13 12 8 8 3 10
35 35 35 34 33 31 32 33 34 36 38 37 34 29 27 8 15 17 20 12 15 13 11 3 6 6 4 4 5 8 6 6 8 3 13 11 9 6 8 5 10 8 3 4 7 10 13
38 36 35 33 31 30 30 29 33 35 38 40 24 33 30 10 6 21 29 25 20 20 8 3 2 2 1 5 6 4 5 4 11 9 15 7 10 8 9 9 11 4 7 9 9 12 10